Weather History for KICT - January, 2013

Change the Weather History Date:

Saturday, January 26, 2013

  Actual Average Record
Temperature  
Mean Temperature 44 °F 33 °F  
Max Temperature 59 °F 44 °F 74 °F (2015)
Min Temperature 28 °F 22 °F -6 °F (1904)
Degree Days  
Heating Degree Days 21 32  
Month to date heating degree days 783 854  
Since 1 July heating degree days 2347 2697  
Cooling Degree Days 0 0  
Month to date cooling degree days 0 0  
Year to date cooling degree days 0 0  
Moisture  
Dew Point 31 °F    
Average Humidity 55    
Maximum Humidity 75    
Minimum Humidity 35    
Precipitation  
Precipitation 0.01 in 0.03 in 0.89 in (1944)
Month to date precipitation 0.54 0.66  
Year to date precipitation 0.54 0.66  
Snow  
Snow 0.00 in 0.10 in 4.00 in (1948)
Month to date snowfall 0.7 2.9  
Since 1 July snowfall 3.2 8.5  
Snow Depth 0.00 in    
Sea Level Pressure  
Sea Level Pressure 30.14 in    
Wind  
Wind Speed 11 mph (SSE)    
Max Wind Speed 22 mph    
Max Gust Speed 26 mph    
Visibility 9 miles    
Events Rain    
T = Trace of Precipitation, MM = Missing Value Source: NWS Daily Summary

Daily Weather History Graph

Daily Weather History Graph

Search for Another Location

Airport or City:

Trip Planner

Search our weather history database for the weather conditions in past years. The results will help you decide how hot, cold, wet, or windy it might be!

Date:

Astronomy

Jan. 26, 2013 Rise Set
Actual Time 7:37 AM CST 5:47 PM CST
Civil Twilight 7:09 AM CST 6:15 PM CST
Nautical Twilight 6:38 AM CST 6:46 PM CST
Astronomical Twilight 6:07 AM CST 7:17 PM CST
Moon 5:42 PM CST (1/26) 6:57 AM CST (1/26)
Length of Visible Light 11h 05m
Length of Day
10h 09m
Full, 100% of the Moon is Illuminated
Jan 26
Full
Jan 26
Full
Feb 3
Last Quarter
Feb 10
New
Feb 17
First Quarter

Hourly Weather History & Observations

Time (CST) Temp. Windchill Dew Point Humidity Pressure Visibility Wind Dir Wind Speed Gust Speed Precip Events Conditions
12:53 AM 37.0 °F - 26.1 °F 65% 30.25 in 8.0 mi Calm Calm - N/A   Mostly Cloudy
1:53 AM 37.0 °F - 26.1 °F 65% 30.25 in 8.0 mi Calm Calm - N/A   Mostly Cloudy
2:53 AM 37.0 °F 34.5 °F 26.1 °F 65% 30.24 in 8.0 mi East 3.5 mph - N/A   Overcast
3:53 AM 37.0 °F 33.3 °F 27.0 °F 67% 30.22 in 8.0 mi ESE 4.6 mph - N/A   Mostly Cloudy
4:53 AM 33.1 °F 30.0 °F 25.0 °F 72% 30.21 in 8.0 mi South 3.5 mph - N/A   Scattered Clouds
5:53 AM 32.0 °F 27.5 °F 25.0 °F 75% 30.21 in 8.0 mi East 4.6 mph - N/A   Partly Cloudy
6:53 AM 30.9 °F 26.2 °F 23.0 °F 72% 30.23 in 8.0 mi ESE 4.6 mph - N/A   Scattered Clouds
7:53 AM 28.0 °F 24.2 °F 21.9 °F 78% 30.25 in 10.0 mi SE 3.5 mph - N/A   Scattered Clouds
8:53 AM 37.9 °F 31.5 °F 26.1 °F 62% 30.24 in 10.0 mi SE 9.2 mph - N/A   Partly Cloudy
9:53 AM 43.0 °F 38.2 °F 26.1 °F 51% 30.25 in 10.0 mi SSE 8.1 mph - N/A   Scattered Clouds
10:53 AM 48.0 °F - 27.0 °F 44% 30.24 in 10.0 mi SSE 11.5 mph - N/A   Scattered Clouds
11:53 AM 53.1 °F - 28.0 °F 38% 30.19 in 10.0 mi South 16.1 mph - N/A   Partly Cloudy
12:53 PM 55.0 °F - 28.0 °F 35% 30.16 in 10.0 mi South 15.0 mph 23.0 mph N/A   Partly Cloudy
1:53 PM 57.0 °F - 30.0 °F 36% 30.11 in 10.0 mi SSE 15.0 mph 24.2 mph N/A   Scattered Clouds
2:53 PM 57.9 °F - 30.0 °F 35% 30.09 in 10.0 mi South 20.7 mph 24.2 mph N/A   Scattered Clouds
3:53 PM 55.0 °F - 35.1 °F 47% 30.08 in 10.0 mi South 16.1 mph 24.2 mph N/A   Mostly Cloudy
4:15 PM 53.6 °F - 35.6 °F 51% 30.07 in 10.0 mi South 17.3 mph - N/A   Overcast
4:53 PM 53.1 °F - 35.1 °F 50% 30.08 in 10.0 mi South 15.0 mph - N/A   Overcast
5:53 PM 51.1 °F - 37.0 °F 59% 30.08 in 10.0 mi South 16.1 mph - N/A   Overcast
6:53 PM 48.9 °F - 37.0 °F 64% 30.07 in 10.0 mi SSE 13.8 mph - N/A   Overcast
7:53 PM 46.4 °F 39.8 °F 39.2 °F 76% 30.04 in 9.0 mi SSE 16.1 mph - N/A Rain Light Rain
8:53 PM 46.0 °F 40.6 °F 37.9 °F 73% 30.05 in 9.0 mi SSE 11.5 mph - 0.01 in Rain Light Rain
9:53 PM 46.0 °F 39.6 °F 37.9 °F 73% 30.04 in 10.0 mi South 15.0 mph - 0.00 in   Overcast
10:53 PM 45.0 °F 38.2 °F 37.9 °F 76% 30.03 in 10.0 mi SSE 15.0 mph - 0.00 in Rain Light Rain
11:49 PM 44.6 °F 37.8 °F 39.2 °F 81% 30.02 in 9.0 mi SSE 15.0 mph - 0.00 in   Overcast
11:53 PM 44.1 °F 37.4 °F 39.0 °F 82% 30.02 in 9.0 mi SSE 13.8 mph - 0.00 in   Overcast